Tallulah, LA

4:08 PM CST on February 25, 2017 (GMT -0600)
Vicksburg Tallulah Regional

Weather History for KTVR - November, 2013

Change the Weather History Date:

Tuesday, November 26, 2013

  Actual Average Record
Temperature  
Mean Temperature 42 °F 52 °F  
Max Temperature 44 °F 64 °F 86 °F (1965)
Min Temperature 39 °F 41 °F 24 °F (1950)
Degree Days  
Heating Degree Days 23 13  
Month to date heating degree days 325 245  
Since 1 July heating degree days 426 347  
Cooling Degree Days 0 0  
Month to date cooling degree days 16 12  
Year to date cooling degree days 2264 2221  
Moisture  
Dew Point 38 °F    
Average Humidity 91    
Maximum Humidity 100    
Minimum Humidity 82    
Precipitation  
Precipitation 0.51 in 0.20 in 1.16 in (1948)
Month to date precipitation 6.23 4.13  
Year to date precipitation 63.58 48.26  
Sea Level Pressure  
Sea Level Pressure 30.02 in    
Wind  
Wind Speed 10 mph (NNW)    
Max Wind Speed 21 mph    
Max Gust Speed 28 mph    
Visibility 8 miles    
Events Rain    
T = Trace of Precipitation, MM = Missing Value Source: NWS Daily Summary

Daily Weather History Graph

Daily Weather History Graph

Search for Another Location

Airport or City:

Trip Planner

Search our weather history database for the weather conditions in past years. The results will help you decide how hot, cold, wet, or windy it might be!

Date:

Astronomy

Nov. 26, 2013 Rise Set
Actual Time 6:43 AM CST 4:59 PM CST
Civil Twilight 6:16 AM CST 5:25 PM CST
Nautical Twilight 5:46 AM CST 5:56 PM CST
Astronomical Twilight 5:17 AM CST 6:25 PM CST
Moon 12:09 AM CST (11/26) 12:46 PM CST (11/26)
Length of Visible Light 11h 09m
Length of Day
10h 15m
Last Quarter, 41% of the Moon is Illuminated
Nov 26
Last Quarter
Dec 2
New
Dec 9
First Quarter
Dec 17
Full
Dec 25
Last Quarter

Hourly Weather History & Observations

Time (CST) Temp. Windchill Dew Point Humidity Pressure Visibility Wind Dir Wind Speed Gust Speed Precip Events Conditions
12:31 AM 39.9 °F 35.1 °F 39.0 °F 97% 30.06 in 4.0 mi Variable 6.9 mph - 0.13 in Rain Heavy Rain
12:53 AM 39.9 °F 33.9 °F 37.9 °F 93% 30.07 in 3.0 mi North 9.2 mph - 0.27 in Rain Heavy Rain
1:07 AM 39.9 °F 33.4 °F 39.0 °F 97% 30.02 in 4.0 mi North 10.4 mph - 0.08 in Rain Heavy Rain
1:36 AM 39.9 °F 32.1 °F 37.9 °F 93% 29.97 in 7.0 mi NNE 13.8 mph 20.7 mph 0.21 in Rain Rain
1:53 AM 39.9 °F 31.8 °F 37.9 °F 93% 29.95 in 10.0 mi NE 15.0 mph - 0.21 in Rain Light Rain
2:53 AM 41.0 °F 36.4 °F 39.0 °F 93% 29.96 in 10.0 mi NE 6.9 mph - 0.00 in   Overcast
3:53 AM 41.0 °F 36.4 °F 39.9 °F 96% 29.92 in 10.0 mi North 6.9 mph - N/A   Overcast
4:53 AM 39.9 °F 33.4 °F 39.0 °F 97% 29.95 in 9.0 mi North 10.4 mph 19.6 mph N/A   Overcast
5:53 AM 39.9 °F 32.5 °F 39.0 °F 97% 29.98 in 5.0 mi NNW 12.7 mph 25.3 mph N/A   Overcast
6:53 AM 39.9 °F 31.8 °F 39.0 °F 97% 29.99 in 7.0 mi North 15.0 mph 24.2 mph N/A   Overcast
7:53 AM 41.0 °F 33.9 °F 39.0 °F 93% 30.01 in 3.0 mi North 12.7 mph - 0.00 in Rain Light Rain
8:53 AM 41.0 °F 35.8 °F 39.9 °F 96% 30.04 in 10.0 mi NW 8.1 mph - 0.00 in   Overcast
9:53 AM 41.0 °F 35.8 °F 39.0 °F 93% 30.07 in 10.0 mi NNW 8.1 mph 18.4 mph 0.00 in   Overcast
10:06 AM 41.0 °F 37.1 °F 39.0 °F 93% 30.05 in 10.0 mi NNW 5.8 mph - N/A   Overcast
10:27 AM 41.0 °F 35.8 °F 39.0 °F 93% 30.05 in 6.0 mi NW 8.1 mph 18.4 mph 0.00 in Rain Light Rain
10:53 AM 41.0 °F 34.3 °F 39.0 °F 93% 30.01 in 6.0 mi North 11.5 mph - 0.00 in Rain Light Rain
11:37 AM 42.1 °F 34.9 °F 39.0 °F 89% 29.94 in 10.0 mi North 13.8 mph 27.6 mph 0.00 in   Overcast
11:53 AM 42.1 °F 34.2 °F 39.0 °F 89% 29.93 in 10.0 mi North 16.1 mph 24.2 mph 0.00 in   Overcast
12:53 PM 43.0 °F 37.2 °F 37.9 °F 82% 29.97 in 10.0 mi North 10.4 mph 17.3 mph N/A   Overcast
1:53 PM 44.1 °F 39.5 °F 39.0 °F 82% 29.95 in 10.0 mi North 8.1 mph 17.3 mph N/A   Overcast
2:06 PM 43.0 °F 36.4 °F 39.0 °F 86% 29.91 in 10.0 mi North 12.7 mph 20.7 mph N/A   Overcast
2:46 PM 43.0 °F 38.2 °F 37.9 °F 82% 29.94 in 10.0 mi North 8.1 mph 18.4 mph N/A   Overcast
2:53 PM 43.0 °F 37.2 °F 37.9 °F 82% 29.96 in 10.0 mi North 10.4 mph 19.6 mph N/A   Overcast
3:53 PM 41.0 °F 33.5 °F 37.0 °F 86% 30.01 in 10.0 mi NW 13.8 mph 24.2 mph N/A   Overcast
4:53 PM 39.9 °F 33.4 °F 37.9 °F 93% 30.04 in 4.0 mi NNW 10.4 mph 18.4 mph 0.00 in Rain Light Rain
5:48 PM 39.2 °F 32.0 °F 35.6 °F 87% 30.02 in 10.0 mi NNW 11.5 mph 19.6 mph 0.02 in Rain Light Rain
5:53 PM 39.9 °F 32.9 °F 36.0 °F 86% 30.04 in 10.0 mi NNW 11.5 mph 18.4 mph 0.02 in Rain Light Rain
6:53 PM 39.9 °F 33.4 °F 36.0 °F 86% 30.08 in 10.0 mi NNW 10.4 mph 20.7 mph 0.02 in Rain Light Rain
7:53 PM 39.9 °F 33.9 °F 37.0 °F 89% 30.10 in 10.0 mi NNW 9.2 mph - 0.00 in Rain Light Rain
8:53 PM 39.9 °F 34.5 °F 37.0 °F 89% 30.12 in 10.0 mi NW 8.1 mph - 0.00 in   Overcast
9:53 PM 39.0 °F 32.8 °F 35.1 °F 86% 30.14 in 10.0 mi NW 9.2 mph - N/A   Clear
10:53 PM 39.9 °F 34.5 °F 35.1 °F 83% 30.17 in 10.0 mi NW 8.1 mph - N/A   Overcast
11:53 PM 41.0 °F 35.8 °F 36.0 °F 82% 30.17 in 10.0 mi NW 8.1 mph - N/A   Overcast